Date String (YYYY-MM-DD hh:mm:ss) UTC,Instrument flags,Ambient pressure (hPa),Sample flow (lpm),Bypass flow (lpm),Sample temperature (°C),Ambient temperature (°C),ASC tube jacket temperature (°C),LED temperature (°C),Box temperature (°C),Sample RH (%),Span deviation,Mass concentration (μg/m³),Mass concentration (μg/m³),Mass concentration (μg/m³)
DateTimeUTC,F1_M11,P_M11,Q1_M11,Q2_M11,T1_M11,T2_M11,T3_M11,T4_M11,T5_M11,U1_M11,ZSPAN_M11,X0_M11,X2_M11,X1_M11
2023-02-25 05:00:00,,0826.7,5.00,0.00,22.0,20.3,00.0,30.8,23.6,07.9,0000.0,0004.78,0002.57,0002.22
2023-02-25 05:01:00,,0826.7,5.00,0.00,22.0,20.2,00.0,30.8,23.6,07.9,0000.0,0004.21,0002.49,0002.17
2023-02-25 05:02:00,,0826.6,5.00,0.00,22.0,20.1,00.0,30.7,23.5,07.9,0000.0,0004.22,0002.46,0002.14
2023-02-25 05:03:00,,0826.6,5.00,0.00,21.9,20.1,00.0,30.7,23.5,07.9,0000.0,0004.31,0002.45,0002.10
2023-02-25 05:04:00,,0826.6,5.00,0.00,21.9,20.0,00.0,30.7,23.5,07.9,0000.0,0004.33,0002.46,0002.08
2023-02-25 05:05:00,,0826.7,5.01,0.00,21.9,20.7,00.0,30.7,23.6,07.9,0000.0,0004.37,0002.46,0002.06
2023-02-25 05:06:00,,0826.7,5.03,0.00,22.0,21.9,00.0,30.7,23.9,07.9,0000.0,0004.27,0002.40,0002.01
2023-02-25 05:07:00,,0826.6,5.00,0.00,22.1,22.8,00.0,30.7,24.1,07.8,0000.0,0004.36,0002.35,0001.94
2023-02-25 05:08:00,,0826.7,5.00,0.00,22.2,22.5,00.0,30.8,24.1,07.8,0000.0,0003.90,0002.31,0001.90
2023-02-25 05:09:00,,0826.7,5.00,0.00,22.2,22.0,00.0,30.8,24.1,07.8,0000.0,0003.68,0002.29,0001.88
2023-02-25 05:10:00,,0826.7,4.99,0.00,22.2,21.6,00.0,30.8,24.0,07.7,0000.0,0003.59,0002.24,0001.85
2023-02-25 05:11:00,,0826.6,5.01,0.00,22.2,21.3,00.0,30.8,23.9,07.7,0000.0,0003.57,0002.20,0001.81
2023-02-25 05:12:00,,0826.5,4.99,0.00,22.2,21.0,00.0,30.8,23.9,07.8,0000.0,0003.55,0002.13,0001.74
2023-02-25 05:13:00,,0826.5,5.01,0.00,22.2,20.8,00.0,30.8,23.8,08.0,0000.0,0003.40,0002.01,0001.68
2023-02-25 05:14:00,,0826.5,5.01,0.00,22.1,20.7,00.0,30.8,23.8,07.9,0000.0,0003.18,0001.93,0001.63
2023-02-25 05:15:00,,0826.7,4.98,0.00,22.1,20.5,00.0,30.8,23.8,08.0,0000.0,0003.05,0001.85,0001.58
2023-02-25 05:16:00,,0826.7,4.99,0.00,22.1,20.4,00.0,30.8,23.7,07.9,0000.0,0003.03,0001.77,0001.50
2023-02-25 05:17:00,,0826.7,5.00,0.00,22.0,20.2,00.0,30.8,23.6,07.8,0000.0,0003.07,0001.72,0001.44
2023-02-25 05:18:00,,0826.5,5.00,0.00,22.0,20.1,00.0,30.8,23.6,07.7,0000.0,0003.00,0001.68,0001.40
2023-02-25 05:19:00,,0826.5,5.01,0.00,22.0,20.1,00.0,30.8,23.5,07.6,0000.0,0002.82,0001.58,0001.33
2023-02-25 05:20:00,,0826.5,5.00,0.00,22.0,20.3,00.0,30.8,23.6,07.6,0000.0,0002.70,0001.51,0001.27
2023-02-25 05:21:00,,0826.5,4.99,0.00,22.0,21.3,00.0,30.7,23.8,07.7,0000.0,0002.58,0001.44,0001.21
2023-02-25 05:22:00,,0826.5,5.06,0.00,22.1,22.4,00.0,30.7,24.1,07.7,0000.0,0002.39,0001.37,0001.14
2023-02-25 05:23:00,,0826.5,5.05,0.00,22.3,23.1,00.0,30.8,24.3,07.7,0000.0,0002.12,0001.32,0001.10
2023-02-25 05:24:00,,0826.5,4.98,0.00,22.3,22.7,00.0,30.8,24.2,07.6,0000.0,0002.01,0001.28,0001.07
2023-02-25 05:25:00,,0826.5,5.01,0.00,22.3,22.1,00.0,30.9,24.1,07.2,0000.0,0001.89,0001.22,0001.02
2023-02-25 05:26:00,,0826.6,5.01,0.00,22.3,21.6,00.0,30.9,24.0,07.1,0000.0,0001.81,0001.17,0000.96
2023-02-25 05:27:00,,0826.5,4.99,0.00,22.2,21.2,00.0,30.9,23.9,07.1,0000.0,0002.04,0001.09,0000.93
2023-02-25 05:28:00,,0826.5,5.02,0.00,22.2,20.9,00.0,30.9,23.8,07.2,0000.0,0002.45,0001.04,0000.90
2023-02-25 05:29:00,,0826.5,4.99,0.00,22.2,20.6,00.0,30.9,23.8,07.2,0000.0,0002.33,0001.02,0000.88
2023-02-25 05:30:00,,0826.5,5.00,0.00,22.1,20.4,00.0,30.9,23.6,07.3,0000.0,0002.36,0001.01,0000.87
2023-02-25 05:31:00,,0826.5,5.00,0.00,22.1,20.2,00.0,30.9,23.6,07.4,0000.0,0002.50,0000.99,0000.87
2023-02-25 05:32:00,,0826.6,5.00,0.00,22.0,20.1,00.0,30.9,23.5,07.4,0000.0,0002.48,0000.98,0000.86
2023-02-25 05:33:00,,0826.5,5.00,0.00,22.0,20.0,00.0,30.8,23.5,07.4,0000.0,0002.44,0000.95,0000.86
2023-02-25 05:34:00,,0826.6,5.01,0.00,21.9,20.0,00.0,30.8,23.4,07.4,0000.0,0002.39,0000.92,0000.86
2023-02-25 05:35:00,,0826.5,5.00,0.00,21.9,20.0,00.0,30.8,23.4,07.6,0000.0,0002.40,0000.92,0000.86
2023-02-25 05:36:00,,0826.5,4.97,0.00,21.9,20.7,00.0,30.8,23.5,07.9,0000.0,0002.46,0000.95,0000.87
2023-02-25 05:37:00,,0826.5,5.01,0.00,22.0,21.9,00.0,30.7,23.9,07.8,0000.0,0002.45,0000.95,0000.87
2023-02-25 05:38:00,,0826.5,5.05,0.00,22.2,23.0,00.0,30.8,24.2,07.8,0000.0,0002.15,0000.94,0000.87
2023-02-25 05:39:00,,0826.5,4.99,0.00,22.3,23.1,00.0,30.8,24.2,07.7,0000.0,0001.45,0000.97,0000.88
2023-02-25 05:40:00,,0826.5,4.98,0.00,22.3,22.4,00.0,30.9,24.1,07.5,0000.0,0001.47,0000.98,0000.88
2023-02-25 05:41:00,,0826.5,5.01,0.00,22.3,21.8,00.0,30.9,24.0,07.3,0000.0,0001.44,0000.99,0000.88
2023-02-25 05:42:00,,0826.5,5.01,0.00,22.2,21.3,00.0,30.9,23.9,07.2,0000.0,0001.26,0000.98,0000.86
2023-02-25 05:43:00,,0826.5,5.01,0.00,22.2,21.0,00.0,30.9,23.8,07.2,0000.0,0001.27,0000.97,0000.85
2023-02-25 05:44:00,,0826.5,5.00,0.00,22.2,20.8,00.0,30.9,23.7,07.3,0000.0,0001.29,0000.97,0000.85
2023-02-25 05:45:00,,0826.4,5.00,0.00,22.1,20.5,00.0,30.9,23.7,07.2,0000.0,0001.35,0000.99,0000.85
2023-02-25 05:46:00,,0826.4,5.01,0.00,22.1,20.4,00.0,30.9,23.6,07.1,0000.0,0001.39,0001.00,0000.84
2023-02-25 05:47:00,,0826.5,5.00,0.00,22.1,20.3,00.0,30.9,23.6,07.0,0000.0,0001.67,0000.98,0000.82
2023-02-25 05:48:00,,0826.5,5.00,0.00,22.0,20.2,00.0,30.9,23.5,07.1,0000.0,0001.94,0000.97,0000.80
2023-02-25 05:49:00,,0826.5,5.00,0.00,22.0,20.2,00.0,30.8,23.5,07.7,0000.0,0002.02,0000.98,0000.80
2023-02-25 05:50:00,,0826.5,4.99,0.00,21.9,20.1,00.0,30.8,23.5,07.7,0000.0,0002.11,0000.98,0000.79
2023-02-25 05:51:00,,0826.5,5.00,0.00,21.9,20.3,00.0,30.8,23.5,07.3,0000.0,0002.10,0000.97,0000.79
2023-02-25 05:52:00,,0826.5,4.98,0.00,22.0,21.5,00.0,30.8,23.8,07.2,0000.0,0002.09,0000.96,0000.79
2023-02-25 05:53:00,,0826.5,5.03,0.00,22.1,22.5,00.0,30.8,24.1,07.2,0000.0,0002.09,0000.96,0000.79
2023-02-25 05:54:00,,0826.5,4.98,0.00,22.2,22.6,00.0,30.8,24.1,07.4,0000.0,0002.33,0000.98,0000.80
2023-02-25 05:55:00,,0826.5,4.99,0.00,22.2,22.1,00.0,30.9,24.1,07.5,0000.0,0002.38,0001.00,0000.80
2023-02-25 05:56:00,,0826.4,5.00,0.00,22.2,21.5,00.0,30.9,23.9,07.3,0000.0,0002.48,0001.00,0000.80
2023-02-25 05:57:00,,0826.4,4.99,0.00,22.2,21.1,00.0,30.9,23.8,07.4,0000.0,0002.45,0000.99,0000.80
2023-02-25 05:58:00,,0826.4,4.98,0.00,22.1,20.8,00.0,30.9,23.7,07.4,0000.0,0002.17,0000.98,0000.80
2023-02-25 05:59:00,,0826.5,4.99,0.00,22.1,20.6,00.0,30.9,23.7,07.3,0000.0,0001.89,0000.99,0000.81
